STARLINK-32788 (62502 NORAD) Tracking and Keplerian Element Data

This shows tracking and keplerian element data for the satellite.

Feedback or suggestion? Click here.




ElementValue
Catalog62502
NameSTARLINK-32788
Epoch Orbit511
Epoch Day33.27451229
Epoch Year2025
RAAN34.5987
Inclination43.0004
Eccentricity8.92E-05
Argument of Perigee242.3845
Mean Anonmoly117.6925
Mean Motion15.50561112
Decay Rate-3.191E-05
L11 62502U 25003R 25033.27451229 -.00003191 00000+0 -48636-4 0 9996
L22 62502 43.0004 34.5987 0000892 242.3845 117.6925 15.50561112 5116



Live tracking and technical data element details for STARLINK-32788 (NORAD 62502). STARLINK-32788 can be tracked NOW for your location showing map with azimuth and elevation plus other details from your city location.







IsCatalogInMostPopularTable: catalog: 62502, numindb: 13
Update: records affected: 1



GetName: 62502 STARLINK-32788

Hit Count: updated at: Sun, 18 May 2025 23:22:16 GMT